Regional Weather Roundup
Issued by NWS New Orleans/Baton Rouge, LA

Home | Current Version | Previous Version | Text Only | Print | Product List | Glossary On
Versions: 1 2 3 4 5 6 7 8 9 10 11 12 13 14 15 16 17 18 19 20 21 22 23 24 25 26 27 28 29 30 31 32 33 34 35 36 37 38 39 40 41 42 43 44 45 46 47 48 49 50
000
ASUS44 KLIX 100113
RWRLIX
NEW ORLEANS REGIONAL WEATHER ROUNDUP
NATIONAL WEATHER SERVICE NEW ORLEANS LA
700 PM CST FRI DEC 09 2016

NOTE: "FAIR" INDICATES FEW OR NO CLOUDS BELOW 12,000 FEET WITH NO
      SIGNIFICANT WEATHER AND/OR OBSTRUCTIONS TO VISIBILITY.
      SKY/WX - SKY CONDITION AND SIGNIFICANT WEATHER.
      TMP - AIR TEMPERATURE.     DP    - DEWPOINT TEMPERATURE.
      RH  - RELATIVE HUMIDITY.   PRES  - PRESSURE.
      HI  - HEAT INDEX.          WCI   - WIND CHILL INDEX.

*  THESE STATIONS ARE NOT NWS OR FAA STATIONS AND ARE NOT UNDER
   NWS QUALITY CONTROL.

LAZ038-040-048-061>063-065>067-069-100200-
SOUTHEAST LOUISIANA

CITY           SKY/WX    TMP DP  RH WIND       PRES   REMARKS
N.O. AUDUBON   NOT AVBL
N.O. INTL ARPT CLEAR     48  23  37 NE8       30.48S
N.O. LAKEFRONT CLEAR     49  27  42 NE16      30.49S
N.O. DOWNTOWN*   N/A     49  21  33 VRB6      30.49S
RESERVE*         N/A     46  23  41 N6        30.50R
SLIDELL        CLEAR     37  32  82 CALM      30.49S
BATON ROUGE    PTCLDY    42  25  50 N5        30.51R
BOOTHVILLE     CLEAR     47  30  51 N13G21    30.47R
BELLE CHASSE   PTCLDY    43  25  49 NE9       30.48S
BOGALUSA*        N/A     35  30  80 N6        30.52S WCI  30
GALLIANO*      CLEAR     46  25  44 N6        30.47F
NEW ROADS*       N/A     39  30  71 N6        30.52S WCI  34
GONZALES*        N/A     42  26  53 N3        30.49S
HAMMOND*       CLEAR     37  28  70 N5        30.50S WCI  34
HOUMA*         PTCLDY    42  28  57 CALM      30.48S
PORT FOURCHON* CLEAR     48  32  53 NE12G18   30.46F

$$

MSZ070-080>082-100200-
SOUTHERN MISSISSIPPI

CITY           SKY/WX    TMP DP  RH WIND       PRES   REMARKS
MCCOMB         CLEAR     40  17  39 N6        30.51R
GULFPORT       PTCLDY    43  24  47 N6        30.48S
BILOXI         PTCLDY    43  25  49 NE7       30.48S
PASCAGOULA     PTCLDY    35  30  82 CALM      30.50R
STENNIS ARPT*  CLEAR     37  27  65 N5        30.50S WCI  34

$$

COASTAL OBSERVATIONS
LAKE AND NEARSHORE STATIONS

STATION/POSITION TIME  TEMP    WIND        PRES    WAVE
                       AIR SEA DIR/SP/G            HT/PER
                 (UTC) (F)     (DEG/KT/KT) (MB)    (FT/S)
PASCAGOULA       0048   43      10/  6/  8 1032.0
WAVELAND YACHT   0048   47 54   20/ 11/ 13 1032.2
GRAND ISLE       0048   49 60   50/ 11/ 19 1031.6
SOUTHWEST PASS   0042           30/ 20/ 23   N/A
NEW CANAL        0048   50 57   40/ 18/ 20 1031.1
SHELL BEACH      0048   49 55   20/ 17/ 20 1032.1

OFFSHORE STATIONS

STATION/POSITION TIME  TEMP    WIND        PRES    WAVE
                       AIR SEA DIR/SP/G            HT/PER
                 (UTC) (F)     (DEG/KT/KT) (MB)    (FT/S)
64 S DAUPHIN ISL 0050   55 74   20/ 19/ 25 1030.8    5/ 6

$$




USA.gov is the U.S. government's official web portal to all federal, state and local government web resources and services.